Regional Weather Roundup
Issued by NWS Charleston, WV

Home | Current Version | Previous Version | Graphics & Text | Print | Product List | Glossary On
Versions: 1 2 3 4 5 6 7 8 9 10 11 12 13 14 15 16 17 18 19 20 21 22 23 24 25 26 27 28 29 30 31 32 33 34 35 36 37 38 39 40 41 42 43 44 45 46 47 48 49 50
000
ASUS41 KRLX 310110
RWRRLX
West Virginia Regional Weather Roundup
National Weather Service Charleston WV
800 PM EST FRI JAN 30 2015

Note: "fair" indicates few or no clouds below 12,000 feet with no
significant weather and/or obstructions to visibility.

WVZ003-310200-
Northern Panhandle of West Virginia

CITY           SKY/WX    TMP DP  RH WIND       PRES   REMARKS
WHEELING       CLOUDY    13   4  67 W10       30.38F WCI   0
$$

WVZ009-310200-
Northwest West Virginia

CITY           SKY/WX    TMP DP  RH WIND       PRES   REMARKS
PARKERSBURG    CLEAR     19   8  62 NW5       30.46R
$$

WVZ006-310200-
Western West Virginia

CITY           SKY/WX    TMP DP  RH WIND       PRES   REMARKS
HUNTINGTON     CLEAR     24  12  60 N6        30.44R
$$

WVZ015-310200-
West Central West Virginia

CITY           SKY/WX    TMP DP  RH WIND       PRES   REMARKS
CHARLESTON     PTCLDY    24  10  55 W6        30.43R
$$

WVZ022-031-310200-
North Central West Virginia

CITY           SKY/WX    TMP DP  RH WIND       PRES   REMARKS
CLARKSBURG     CLEAR     17   7  64 NW7       30.38R WCI   8
MORGANTOWN     PTCLDY    17   3  54 NW8       30.38R WCI   7
$$

WVZ025-035-042-045-310200-
Southern West Virginia

CITY           SKY/WX    TMP DP  RH WIND       PRES   REMARKS
BECKLEY        PTCLDY    17   7  64 NW9G20    30.29R WCI   6
LOGAN            N/A     23  12  63 N7        30.37R
BLUEFIELD      CLEAR     21   8  57 NW13      30.26R WCI   9
LEWISBURG      MOCLDY    22   9  57 W6        30.26R
$$

WVZ047-310200-
Northern Mountains of West Virginia

CITY           SKY/WX    TMP DP  RH WIND       PRES   REMARKS
ELKINS         CLOUDY    17   9  70 NW13      30.31R WCI   4
$$

WVZ052-310200-
Eastern Panhandle of West Virginia

CITY           SKY/WX    TMP DP  RH WIND       PRES   REMARKS
MARTINSBURG    PTCLDY    22   5  48 NW22G39   30.29R WCI   6
PETERSBURG     NOT AVBL
$$


USA.gov is the U.S. government's official web portal to all federal, state and local government web resources and services.